Vorticity
5 4 8 11 8 5 3 3 1 -0 0 1 2 3 3 4 4 3 2 2 2 1 4 5 6 7 8 7 7 8 10 10 9 10 10 9 8 7 6 6 5 4 4
5 5 7 8 5 3 3 1 1 1 2 5 3 2 4 5 4 2 2 6 7 5 11 11 7 10 11 10 12 13 10 6 4 3 3 3 3 4 5 6 8 10 10
5 5 6 5 3 4 1 0 1 4 8 3 3 5 5 4 5 5 6 1 10 11 11 10 9 9 9 8 4 2 3 2 3 4 3 4 4 4 4 4 5 4 4
4 3 5 2 3 4 0 0 2 9 2 4 5 5 4 3 2 4 4 10 9 10 8 7 8 6 4 2 1 0 2 3 4 7 7 4 5 5 4 5 4 5 5
4 6 4 4 7 5 1 1 0 4 4 4 4 4 1 3 7 7 11 8 7 7 8 7 4 4 2 2 2 2 3 5 6 6 7 6 5 6 8 8 8 7 8
7 6 5 4 4 4 2 1 5 2 4 4 4 3 2 3 1 5 10 10 7 5 6 6 3 2 1 2 3 3 3 5 7 6 7 8 13 10 9 9 9 9 8
8 7 5 5 3 3 2 4 6 2 4 4 3 4 4 4 4 -1 4 8 5 5 6 5 3 2 3 4 2 4 5 7 7 6 12 10 14 16 16 14 16 12 6
2 7 7 6 4 3 5 2 6 3 4 3 4 4 2 4 6 3 7 9 7 5 5 5 3 3 5 3 4 4 7 4 8 11 14 15 18 20 20 24 23 17 23
2 4 10 7 5 5 4 3 4 3 3 3 3 4 4 5 5 6 5 9 7 5 4 3 2 5 5 4 5 6 5 8 9 13 16 20 19 15 6 7 5 5 8
2 2 9 8 7 5 4 3 4 3 3 3 3 3 3 5 5 9 7 5 7 5 4 3 3 5 4 6 7 3 8 9 13 17 17 14 7 7 4 3 9 10 9
4 2 5 9 8 6 5 3 3 3 3 3 4 3 4 3 4 7 4 6 6 5 4 4 5 5 5 7 6 6 8 12 15 13 11 7 7 9 9 17 12 11 16
2 3 3 8 9 6 5 4 3 3 3 4 4 4 4 4 6 7 7 4 6 6 6 5 4 5 7 6 6 7 12 12 12 11 10 8 13 13 12 14 16 12 3
6 5 3 8 9 7 6 4 4 3 4 4 4 4 4 5 6 8 3 3 6 7 6 6 3 4 7 7 5 8 13 13 9 10 6 4 8 5 4 4 4 4 3
3 1 1 5 10 6 6 5 4 4 4 4 5 4 4 6 6 6 3 5 5 7 6 4 4 5 6 9 6 8 11 11 7 8 3 3 7 4 3 3 4 4 5
-1 2 6 5 10 6 6 5 4 5 5 4 4 4 4 5 6 5 5 4 5 6 7 5 4 7 7 9 8 6 10 10 9 7 4 4 5 3 2 4 5 5 4
-0 3 6 7 8 6 6 6 4 5 4 6 4 4 5 5 6 5 3 4 4 4 7 6 4 6 8 9 11 7 6 8 13 9 8 7 6 4 3 3 5 7 8
3 4 6 7 8 6 6 6 4 5 4 4 4 5 5 4 7 5 4 3 6 5 8 5 5 8 8 9 13 16 8 6 5 7 5 4 6 9 7 5 4 3 2
2 4 5 8 7 5 6 5 4 4 3 6 3 5 6 4 7 6 6 2 4 4 7 5 5 9 8 9 10 17 17 6 5 5 2 3 7 8 5 5 4 6 6
3 3 5 7 7 5 5 4 5 4 4 4 4 5 3 2 1 7 9 2 2 1 6 6 6 8 8 10 10 15 18 11 4 4 6 6 4 8 11 11 10 10 11
4 5 5 7 6 5 4 5 5 3 3 5 5 3 0 3 2 7 5 1 2 7 9 4 6 8 8 10 8 13 12 16 11 4 3 8 9 4 3 3 2 4 4
4 5 7 8 5 5 5 4 5 3 4 4 3 4 5 5 5 3 9 4 4 8 9 4 6 6 9 10 8 9 17 10 17 8 -1 3 7 9 6 4 3 3 1
3 3 10 9 6 6 5 4 5 3 3 4 6 1 2 5 5 9 2 3 -0 5 10 3 5 4 10 10 8 9 14 10 12 21 7 1 1 5 8 8 5 4 4
6 3 9 6 5 5 4 4 4 3 3 1 -1 4 5 5 9 4 -8 1 6 9 9 4 7 6 8 10 10 8 12 10 10 12 16 7 6 3 4 6 6 5 5
6 0 11 4 5 5 5 4 4 3 4 -1 9 2 5 8 -3 -2 5 14 12 6 8 8 3 1 10 11 11 8 8 10 9 5 10 10 8 7 7 7 6 5 5
5 6 5 7 5 4 5 4 2 0 3 7 2 3 9 7 -5 10 9 7 6 5 9 6 1 4 9 11 11 9 8 7 10 8 1 9 4 3 3 6 8 8 8
4 7 4 7 7 5 6 4 3 6 4 4 2 8 6 -7 12 6 2 6 9 11 11 8 -1 5 9 11 10 10 9 9 9 9 11 7 5 11 5 6 4 5 7
Height
5884 5884 5883 5883 5883 5884 5884 5884 5884 5885 5885 5885 5885 5884 5883 5883 5882 5880 5879 5878 5877 5875 5873 5871 5870 5868 5867 5867 5866 5866 5865 5864 5862 5860 5859 5857 5855 5853 5852 5850 5849 5847 5846
5883 5883 5883 5883 5883 5884 5884 5885 5885 5885 5885 5885 5884 5884 5883 5882 5881 5880 5878 5877 5875 5873 5871 5869 5868 5867 5866 5865 5865 5864 5863 5861 5859 5857 5856 5853 5851 5849 5847 5844 5842 5841 5840
5883 5883 5883 5883 5883 5883 5884 5884 5885 5885 5885 5885 5884 5883 5882 5881 5880 5879 5877 5875 5873 5871 5870 5868 5867 5866 5865 5864 5863 5863 5861 5860 5858 5855 5852 5850 5848 5845 5843 5841 5839 5836 5835
5881 5882 5882 5882 5882 5883 5883 5884 5884 5885 5884 5884 5884 5883 5882 5881 5879 5878 5876 5874 5872 5870 5869 5867 5866 5865 5864 5863 5861 5859 5858 5856 5853 5851 5849 5844 5841 5839 5837 5836 5834 5831 5830
5880 5880 5881 5881 5882 5882 5882 5882 5883 5884 5883 5883 5883 5882 5881 5880 5878 5876 5874 5872 5870 5869 5868 5867 5866 5865 5863 5861 5859 5856 5854 5852 5849 5845 5842 5839 5835 5831 5829 5827 5826 5825 5823
5878 5878 5879 5880 5881 5881 5881 5881 5882 5882 5882 5882 5882 5881 5880 5878 5877 5875 5873 5871 5869 5868 5866 5865 5864 5863 5861 5859 5856 5853 5850 5847 5844 5839 5836 5832 5828 5825 5823 5821 5818 5816 5816
5875 5876 5877 5878 5878 5879 5880 5880 5880 5881 5881 5880 5880 5879 5878 5877 5876 5874 5872 5870 5869 5867 5865 5864 5862 5860 5858 5856 5853 5849 5846 5842 5838 5833 5829 5825 5821 5818 5815 5814 5813 5811 5809
5872 5873 5874 5875 5876 5877 5878 5878 5879 5879 5879 5879 5878 5877 5877 5876 5874 5872 5871 5869 5867 5866 5864 5862 5860 5858 5855 5853 5849 5845 5841 5837 5832 5828 5823 5819 5815 5812 5810 5809 5807 5806 5804
5868 5869 5871 5872 5873 5874 5875 5876 5877 5877 5877 5877 5876 5875 5874 5873 5872 5871 5869 5867 5865 5864 5862 5859 5857 5855 5852 5849 5845 5841 5836 5831 5827 5822 5818 5815 5812 5809 5807 5806 5804 5802 5800
5863 5865 5866 5868 5869 5871 5872 5873 5874 5874 5875 5874 5874 5873 5872 5871 5870 5869 5867 5865 5863 5861 5859 5857 5855 5852 5849 5846 5842 5836 5832 5827 5822 5818 5815 5813 5810 5808 5806 5803 5801 5799 5797
5858 5860 5862 5864 5866 5867 5869 5870 5871 5872 5872 5872 5872 5871 5870 5869 5868 5866 5864 5862 5861 5859 5856 5854 5851 5848 5845 5842 5837 5832 5828 5823 5819 5816 5814 5811 5809 5806 5804 5801 5798 5796 5794
5852 5855 5857 5859 5861 5863 5865 5867 5868 5869 5869 5869 5869 5869 5867 5866 5865 5863 5862 5860 5858 5855 5853 5850 5847 5844 5841 5837 5833 5828 5824 5820 5817 5814 5812 5810 5807 5805 5802 5800 5797 5795 5793
5845 5849 5851 5854 5856 5859 5861 5863 5864 5865 5866 5866 5866 5866 5865 5863 5861 5860 5859 5857 5855 5852 5849 5846 5843 5840 5837 5833 5828 5824 5821 5818 5815 5813 5811 5808 5806 5804 5802 5800 5797 5795 5793
5838 5842 5846 5848 5851 5853 5856 5858 5860 5861 5862 5862 5863 5862 5861 5860 5858 5857 5856 5854 5851 5848 5845 5842 5839 5836 5832 5829 5825 5820 5817 5814 5813 5811 5809 5807 5805 5803 5801 5798 5796 5794 5792
5830 5835 5839 5842 5845 5847 5850 5853 5855 5856 5858 5858 5859 5858 5858 5857 5856 5853 5852 5850 5847 5845 5842 5838 5836 5832 5829 5825 5821 5817 5814 5811 5809 5807 5806 5804 5803 5801 5798 5796 5794 5792 5790
5823 5828 5832 5836 5838 5842 5845 5848 5850 5852 5854 5854 5854 5854 5854 5853 5852 5849 5848 5846 5843 5841 5838 5835 5832 5829 5825 5821 5817 5814 5810 5807 5805 5803 5802 5800 5799 5797 5795 5793 5791 5789 5787
5815 5820 5825 5830 5833 5836 5839 5843 5845 5847 5849 5850 5850 5850 5849 5849 5848 5845 5844 5842 5839 5836 5834 5831 5827 5825 5821 5817 5813 5810 5806 5804 5802 5799 5797 5796 5794 5793 5791 5789 5787 5785 5783
5807 5814 5819 5823 5827 5830 5834 5837 5840 5842 5843 5845 5845 5845 5845 5845 5843 5841 5840 5837 5834 5832 5830 5826 5823 5820 5816 5813 5809 5805 5802 5800 5797 5795 5793 5791 5790 5788 5786 5784 5782 5780 5778
5800 5805 5811 5815 5819 5824 5828 5832 5834 5836 5838 5840 5839 5841 5840 5840 5838 5837 5835 5832 5830 5827 5825 5821 5818 5814 5811 5807 5803 5800 5797 5795 5793 5791 5788 5786 5784 5782 5780 5778 5776 5774 5773
5792 5798 5803 5808 5813 5818 5822 5826 5829 5831 5833 5834 5835 5835 5836 5835 5833 5831 5830 5827 5825 5822 5819 5816 5813 5809 5806 5802 5798 5794 5791 5788 5787 5785 5783 5781 5778 5776 5775 5773 5771 5769 5767
5785 5791 5797 5802 5807 5811 5816 5820 5823 5825 5828 5829 5830 5830 5830 5829 5827 5825 5824 5822 5819 5816 5814 5810 5807 5804 5800 5796 5792 5788 5785 5782 5780 5778 5776 5774 5773 5770 5768 5766 5764 5762 5760
5778 5785 5790 5796 5801 5806 5810 5814 5818 5820 5822 5823 5825 5825 5824 5823 5821 5819 5819 5816 5813 5810 5807 5804 5801 5798 5794 5790 5787 5783 5779 5776 5773 5771 5770 5767 5765 5763 5761 5759 5756 5754 5752
5771 5777 5781 5789 5795 5800 5805 5809 5812 5815 5817 5818 5819 5819 5818 5817 5815 5814 5812 5810 5807 5804 5801 5798 5795 5792 5788 5784 5780 5777 5773 5769 5766 5764 5762 5760 5758 5755 5753 5750 5747 5745 5743
5765 5769 5774 5783 5788 5793 5799 5803 5807 5809 5810 5812 5813 5813 5812 5810 5809 5808 5805 5803 5800 5797 5794 5791 5788 5785 5781 5777 5773 5769 5766 5763 5760 5759 5755 5752 5750 5748 5745 5742 5739 5736 5734
5757 5763 5770 5776 5782 5787 5792 5797 5800 5802 5805 5806 5807 5806 5805 5804 5803 5801 5798 5796 5793 5790 5788 5784 5781 5778 5774 5769 5765 5762 5758 5755 5752 5751 5749 5744 5741 5738 5736 5732 5729 5726 5722
5748 5756 5765 5771 5776 5781 5787 5791 5795 5797 5798 5799 5800 5800 5799 5798 5796 5793 5791 5789 5786 5783 5780 5777 5774 5770 5765 5761 5757 5753 5749 5746 5742 5740 5738 5734 5732 5727 5724 5721 5719 5716 5712